This is the latest recevied weather packets stored in our database for station/object JA7ZQY-10. If no packets are shown the sender has not sent any weather packets the latest 10 day(s).
| Time | Temp. | Humidity | Pressure | Rain* | Wind** | Luminosity | Snow |
|---|---|---|---|---|---|---|---|
| 1777421556 | 11.67° C | 60% | 1016.4 hPa | 0 mm | - | - | - |
| 1777420956 | 12.22° C | 60% | 1016.4 hPa | 0 mm | - | - | - |
| 1777420356 | 12.22° C | 61% | 1016.2 hPa | 0 mm | - | - | - |
| 1777419757 | 11.67° C | 62% | 1016.2 hPa | 0 mm | - | - | - |
| 1777419156 | 10.56° C | 64% | 1016.3 hPa | 0 mm | - | - | - |
| 1777418556 | 11.11° C | 62% | 1016.2 hPa | 0 mm | - | - | - |
| 1777417955 | 11.67° C | 60% | 1016.1 hPa | 0 mm | - | - | - |
| 1777417356 | 11.67° C | 64% | 1016.1 hPa | 0 mm | - | - | - |
| 1777416755 | 11.11° C | 64% | 1016 hPa | 0 mm | - | - | - |
| 1777416154 | 10.56° C | 65% | 1016 hPa | 0 mm | - | - | - |
| 1777415555 | 10° C | 69% | 1016 hPa | 0 mm | - | - | - |
| 1777414956 | 9.44° C | 72% | 1016.1 hPa | 0 mm | - | - | - |
| 1777414355 | 9.44° C | 74% | 1016 hPa | 0 mm | - | - | - |
| 1777413755 | 8.89° C | 77% | 1015.8 hPa | 0 mm | - | - | - |
| 1777413156 | 8.33° C | 78% | 1016.2 hPa | 0 mm | - | - | - |
| 1777412554 | 8.33° C | 80% | 1016 hPa | 0 mm | - | - | - |
| 1777411955 | 7.78° C | 81% | 1016.1 hPa | 0 mm | - | - | - |
| 1777411356 | 7.78° C | 81% | 1015.9 hPa | 0 mm | - | - | - |
| 1777410755 | 7.78° C | 82% | 1015.8 hPa | 0 mm | - | - | - |
| 1777410155 | 7.22° C | 89% | 1015.8 hPa | 0 mm | - | - | - |
| 1777409554 | 7.22° C | 90% | 1015.9 hPa | 0 mm | - | - | - |
| 1777408955 | 7.22° C | 90% | 1015.9 hPa | 0 mm | - | - | - |
| 1777408355 | 6.67° C | 91% | 1015.4 hPa | 0 mm | - | - | - |
| 1777407756 | 6.67° C | 91% | 1015.4 hPa | 0 mm | - | - | - |
| 1777407154 | 6.11° C | 91% | 1015.4 hPa | 0 mm | - | - | - |
* Rain latest hour (hover to see other rain measurements)
** Current wind speed in m/s (hover to see current wind gust speed)